Location: Baumgartsau
(48.4586°N, 14.0864°E)
Time: 23:19:02
(UTC+00:00)

SL-16 R/B - Pass Details

Date: 07 August 2020
Orbit: 843 x 845 km, 71.0° (Epoch: 26 September)

Event Time Altitude Azimuth Distance (km) Brightness Sun altitude
Rises 23:33:29 0° 314° (NW) 3,414 5.9 -25.3°
Reaches altitude 10° 23:38:14 10° 278° (W) 2,471 4.6 -25.2°
Maximum altitude 23:39:25 11° 266° (W) 2,422 4.4 -25.1°
Enters shadow 23:39:27 11° 265° (W) 2,422 4.4 -25.1°
